Location: Nied?wied?
(53.3665°N, 14.8184°E)
Time: 22:48:07
(UTC+00:00)

Cosmos 2219 Rocket - Pass Details

Date: 03 March 2021
Orbit: 826 x 848 km, 71.0° (Epoch: 12 April)

Event Time Altitude Azimuth Distance (km) Brightness Sun altitude
Rises 17:44:22 0° 154° (SSE) 3,358 5.0 -10.0°
Reaches altitude 10° 17:47:44 10° 133° (SE) 2,433 4.1 -10.5°
Maximum altitude 17:50:56 16° 98° (E) 2,061 3.6 -11.0°
Enters shadow 17:53:53 11° 65° (ENE) 2,392 4.0 -11.4°
Exits shadow 17:55:36 - 52° (NE) 2,815 4.5 -11.7°
Sets 17:57:32 0° 42° (NE) 3,394 5.0 -11.9°
